Location: Newark
(13.6797°N, 8.5297°E)
Time: 14:30:48
(UTC+00:00)

Altair - Pass Details

Date: 31 January 2020
Orbit: 1502 x 1682 km, 47.2° (Epoch: 23 February)

Event Time Altitude Azimuth Distance (km) Brightness Sun altitude
Rises 13:41:26 0° 323° (NW) 4,918 10.1 46.7°
Reaches altitude 10° 13:44:42 10° 327° (NNW) 3,918 9.7 46.1°
Maximum altitude 13:54:37 62° 46° (NE) 1,798 8.2 44.4°
Drops below altitude 10° 14:04:10 10° 126° (SE) 3,791 9.6 42.6°
Sets 14:07:15 0° 129° (SE) 4,751 10.0 42.0°
